Weather History for New York Downtown Manhattan/w, NY

Change the Weather History Date:

Saturday, December 14, 2013

  Actual Average (KNYC) Record (KNYC)
Temperature  
Mean Temperature 30 °F 38 °F  
Max Temperature 35 °F 43 °F 67 °F (1881)
Min Temperature 26 °F 32 °F 12 °F (1976)
Degree Days  
Heating Degree Days 34 27  
Month to date heating degree days 348  
Since 1 July heating degree days 1181  
Cooling Degree Days 0 0  
Month to date cooling degree days 0  
Year to date cooling degree days 1105  
Moisture  
Dew Point 26 °F    
Average Humidity 87    
Maximum Humidity 100    
Minimum Humidity 48    
Precipitation  
Precipitation 0.10 in 0.13 in 2.22 in (1897)
Month to date precipitation 1.92  
Year to date precipitation 47.86  
Snow  
Snow 0.00 in 0.10 in 5.80 in (2003)
Month to date snowfall 1.5  
Since 1 July snowfall 1.8  
Snow Depth -    
Sea Level Pressure  
Sea Level Pressure 30.30 in    
Wind  
Wind Speed 13 mph (NE)    
Max Wind Speed 24 mph    
Max Gust Speed 32 mph    
Visibility 6 miles    
Events      
T = Trace of Precipitation, MM = Missing Value Source: NWS Daily Summary

Daily Weather History Graph

Daily Weather History Graph

Search for Another Location

Airport:

Trip Planner

Search our weather history database for the weather conditions in past years. The results will help you decide how hot, cold, wet, or windy it might be!

Date:

Astronomy

Dec. 14, 2013 Rise Set
Actual Time 7:12 AM EST 4:29 PM EST
Civil Twilight 6:41 AM EST 5:00 PM EST
Nautical Twilight 6:07 AM EST 5:34 PM EST
Astronomical Twilight 5:33 AM EST 6:07 PM EST
Moon 2:49 PM EST (12/14) 4:30 AM EST (12/14)
Length of Visible Light 10h 18m
Length of Day
9h 16m
Waxing Gibbous, 93% of the Moon is Illuminated
Dec 14
Waxing Gibbous
Dec 17
Full
Dec 25
Last Quarter
Jan 1
New
Jan 7
First Quarter

Hourly Weather History & Observations

Time (EST) Temp. Windchill Dew Point Humidity Pressure Visibility Wind Dir Wind Speed Gust Speed Precip Events Conditions
12:15 AM 33.8 °F 29.6 °F 21.2 °F 60% 30.35 in 10.0 mi West 4.6 mph - N/A   Mostly Cloudy
12:35 AM 33.8 °F 30.8 °F 21.2 °F 60% 30.35 in 10.0 mi West 3.5 mph - N/A   Mostly Cloudy
12:55 AM 33.8 °F 28.6 °F 19.4 °F 56% 30.36 in 10.0 mi West 5.8 mph - N/A   Partly Cloudy
1:15 AM 33.8 °F 29.6 °F 19.4 °F 56% 30.35 in 10.0 mi WSW 4.6 mph - N/A   Partly Cloudy
1:35 AM 35.6 °F 30.7 °F 17.6 °F 48% 30.36 in 10.0 mi East 5.8 mph - N/A   Partly Cloudy
1:55 AM 35.6 °F 31.7 °F 19.4 °F 52% 30.36 in 10.0 mi East 4.6 mph - N/A   Clear
2:15 AM 35.6 °F 27.1 °F 23.0 °F 60% 30.38 in 10.0 mi ENE 12.7 mph - N/A   Mostly Cloudy
2:35 AM 33.8 °F 24.8 °F 26.6 °F 75% 30.38 in 10.0 mi NE 12.7 mph 17.3 mph N/A   Scattered Clouds
2:55 AM 33.8 °F 24.8 °F 24.8 °F 70% 30.38 in 10.0 mi NE 12.7 mph - N/A   Clear
3:15 AM 32.0 °F 21.6 °F 26.6 °F 80% 30.38 in 10.0 mi ENE 15.0 mph 19.6 mph N/A   Clear
3:35 AM 32.0 °F 22.1 °F 24.8 °F 75% 30.38 in 10.0 mi NE 13.8 mph 19.6 mph N/A   Clear
3:55 AM 32.0 °F 20.8 °F 26.6 °F 80% 30.39 in 10.0 mi ENE 17.3 mph - N/A   Clear
4:15 AM 30.2 °F 20.2 °F 24.8 °F 80% 30.39 in 10.0 mi NE 12.7 mph - N/A   Clear
4:35 AM 30.2 °F 20.2 °F 24.8 °F 80% 30.40 in 10.0 mi NE 12.7 mph - N/A   Partly Cloudy
4:55 AM 30.2 °F 18.9 °F 24.8 °F 80% 30.40 in 10.0 mi NE 16.1 mph - N/A   Mostly Cloudy
5:15 AM 30.2 °F 19.3 °F 24.8 °F 80% 30.41 in 10.0 mi NE 15.0 mph - N/A   Overcast
5:35 AM 30.2 °F 18.9 °F 26.6 °F 86% 30.42 in 10.0 mi ENE 16.1 mph - N/A   Overcast
5:55 AM 30.2 °F 19.3 °F 24.8 °F 80% 30.43 in 10.0 mi NE 15.0 mph - N/A   Overcast
6:15 AM 30.2 °F 19.8 °F 24.8 °F 80% 30.43 in 10.0 mi NE 13.8 mph - N/A   Overcast
6:35 AM 30.2 °F 20.2 °F 24.8 °F 80% 30.44 in 10.0 mi NE 12.7 mph - N/A   Overcast
6:55 AM 30.2 °F 19.3 °F 26.6 °F 86% 30.44 in 10.0 mi NE 15.0 mph - N/A   Mostly Cloudy
7:15 AM 30.2 °F 19.8 °F 24.8 °F 80% 30.45 in 10.0 mi NE 13.8 mph - N/A   Overcast
7:35 AM 30.2 °F 20.2 °F 24.8 °F 80% 30.45 in 10.0 mi NE 12.7 mph 20.7 mph N/A   Overcast
7:55 AM 30.2 °F 19.3 °F 26.6 °F 86% 30.46 in 10.0 mi NE 15.0 mph 19.6 mph N/A   Overcast
8:15 AM 30.2 °F 19.8 °F 26.6 °F 86% 30.47 in 10.0 mi NE 13.8 mph 21.9 mph N/A   Overcast
8:35 AM 28.4 °F 16.6 °F 26.6 °F 93% 30.48 in 8.0 mi NNE 16.1 mph 21.9 mph N/A   Mostly Cloudy
8:55 AM 28.4 °F 16.2 °F 26.6 °F 93% 30.48 in 9.0 mi NE 17.3 mph 21.9 mph N/A   Overcast
9:15 AM 28.4 °F 16.6 °F 26.6 °F 93% 30.48 in 5.0 mi ENE 16.1 mph - N/A   Overcast
9:35 AM 28.4 °F 16.6 °F 26.6 °F 93% 30.49 in 3.0 mi ENE 16.1 mph - N/A   Overcast
9:55 AM 28.4 °F 18.0 °F 26.6 °F 93% 30.50 in 6.0 mi NE 12.7 mph - N/A   Overcast
10:15 AM 28.4 °F 16.6 °F 26.6 °F 93% 30.50 in 8.0 mi NE 16.1 mph 20.7 mph N/A   Overcast
10:35 AM 28.4 °F 17.0 °F 26.6 °F 93% 30.49 in 6.0 mi NE 15.0 mph 19.6 mph N/A   Overcast
10:55 AM 28.4 °F 16.6 °F 26.6 °F 93% 30.48 in 8.0 mi NE 16.1 mph 20.7 mph N/A   Overcast
11:15 AM 28.4 °F 16.6 °F 26.6 °F 93% 30.47 in 1.8 mi NE 16.1 mph 21.9 mph N/A   Overcast
11:35 AM 28.4 °F 16.2 °F 26.6 °F 93% 30.45 in 2.5 mi NE 17.3 mph 21.9 mph N/A   Overcast
11:55 AM 28.4 °F 15.4 °F 26.6 °F 93% 30.43 in 3.0 mi NNE 19.6 mph 25.3 mph N/A   Overcast
12:15 PM 28.4 °F 14.7 °F 26.6 °F 93% 30.42 in 1.5 mi NNE 21.9 mph 27.6 mph N/A   Overcast
12:35 PM 28.4 °F 16.6 °F 24.8 °F 86% 30.41 in 5.0 mi NE 16.1 mph 26.5 mph N/A   Overcast
12:55 PM 28.4 °F 17.0 °F 26.6 °F 93% 30.41 in 5.0 mi NE 15.0 mph 25.3 mph N/A   Overcast
1:15 PM 26.6 °F 14.7 °F 24.8 °F 93% 30.40 in 1.8 mi NNE 15.0 mph 21.9 mph N/A   Overcast
1:35 PM 26.6 °F 13.1 °F 24.8 °F 93% 30.38 in 1.8 mi NE 19.6 mph 27.6 mph N/A   Overcast
1:55 PM 26.6 °F 14.7 °F 26.6 °F 100% 30.37 in 1.5 mi NNE 15.0 mph 23.0 mph N/A   Overcast
2:15 PM 26.6 °F 14.3 °F 26.6 °F 100% 30.38 in 2.5 mi NE 16.1 mph 23.0 mph N/A   Overcast
2:35 PM 28.4 °F 16.2 °F 26.6 °F 93% 30.36 in 1.2 mi NE 17.3 mph 21.9 mph N/A   Overcast
2:55 PM 28.4 °F 15.4 °F 26.6 °F 93% 30.33 in 1.2 mi NE 19.6 mph 24.2 mph N/A   Overcast
3:15 PM 28.4 °F 16.2 °F 26.6 °F 93% 30.34 in 1.8 mi NE 17.3 mph 24.2 mph N/A   Overcast
3:35 PM 28.4 °F 15.1 °F 26.6 °F 93% 30.32 in 1.5 mi NE 20.7 mph 26.5 mph N/A   Overcast
3:55 PM 28.4 °F 16.2 °F 26.6 °F 93% 30.32 in 1.0 mi NE 17.3 mph 23.0 mph N/A   Overcast
4:15 PM 28.4 °F 15.4 °F 26.6 °F 93% 30.30 in 1.2 mi NNE 19.6 mph 24.2 mph N/A   Overcast
4:35 PM 28.4 °F 15.1 °F 26.6 °F 93% 30.29 in 1.8 mi NE 20.7 mph 26.5 mph N/A   Overcast
4:55 PM 28.4 °F 15.1 °F 26.6 °F 93% 30.26 in 2.5 mi NE 20.7 mph 26.5 mph N/A   Overcast
5:15 PM 28.4 °F 15.8 °F 26.6 °F 93% 30.26 in 2.5 mi NE 18.4 mph 27.6 mph N/A   Overcast
5:35 PM 28.4 °F 15.8 °F 26.6 °F 93% 30.24 in 3.0 mi NE 18.4 mph 26.5 mph N/A   Overcast
5:55 PM 28.4 °F 16.2 °F 26.6 °F 93% 30.24 in 6.0 mi NNE 17.3 mph 26.5 mph N/A   Overcast
6:15 PM 28.4 °F 15.4 °F 26.6 °F 93% 30.21 in 2.0 mi NE 19.6 mph 26.5 mph N/A   Overcast
6:35 PM 28.4 °F 15.4 °F 26.6 °F 93% 30.20 in 1.8 mi NE 19.6 mph 27.6 mph N/A   Overcast
6:55 PM 28.4 °F 15.8 °F 26.6 °F 93% 30.19 in 1.2 mi NNE 18.4 mph 27.6 mph N/A   Overcast
7:15 PM 28.4 °F 15.8 °F 26.6 °F 93% 30.18 in 1.5 mi NE 18.4 mph - N/A   Overcast
7:35 PM 28.4 °F 16.6 °F 26.6 °F 93% 30.17 in 2.0 mi NNE 16.1 mph 27.6 mph N/A   Overcast
7:55 PM 28.4 °F 15.8 °F 26.6 °F 93% 30.14 in 1.8 mi NNE 18.4 mph 21.9 mph N/A   Overcast
8:15 PM 28.4 °F 15.4 °F 26.6 °F 93% 30.12 in 1.8 mi NNE 19.6 mph 29.9 mph N/A   Overcast
8:35 PM 28.4 °F 14.1 °F 26.6 °F 93% 30.09 in 2.0 mi NNE 24.2 mph 31.1 mph N/A   Overcast
8:55 PM 28.4 °F 15.1 °F 28.4 °F 100% 30.05 in 1.2 mi NE 20.7 mph 32.2 mph N/A   Overcast
9:15 PM 30.2 °F 17.4 °F 28.4 °F 93% 30.02 in 5.0 mi NNE 20.7 mph 27.6 mph N/A   Overcast
9:35 PM 30.2 °F 17.8 °F 30.2 °F 100% 30.01 in 7.0 mi NE 19.6 mph 28.8 mph N/A   Overcast
9:55 PM 32.0 °F 19.2 °F 30.2 °F 93% 29.98 in 8.0 mi NNE 23.0 mph 28.8 mph N/A   Overcast
10:15 PM 32.0 °F 20.5 °F 30.2 °F 93% 29.96 in 7.0 mi NNE 18.4 mph 25.3 mph 0.02 in   Overcast
10:35 PM 33.8 °F 21.9 °F 32.0 °F 93% 29.92 in 7.0 mi NNE 21.9 mph 29.9 mph 0.03 in   Overcast
10:55 PM 33.8 °F 22.5 °F 32.0 °F 93% 29.88 in 8.0 mi NNE 19.6 mph 26.5 mph 0.05 in   Overcast
11:15 PM 35.6 °F 24.8 °F 33.8 °F 93% 29.85 in 5.0 mi NNE 19.6 mph 26.5 mph 0.01 in   Overcast
11:35 PM 35.6 °F 24.0 °F 33.8 °F 93% 29.81 in 5.0 mi NNE 23.0 mph 32.2 mph 0.03 in   Overcast
11:55 PM 35.6 °F 24.8 °F 35.6 °F 100% 29.78 in 4.0 mi NE 19.6 mph 31.1 mph 0.05 in   Overcast